Погода в Вербовом

Украина / Запорожская область     48°04′06″N   35°19′24″E
темп.,
°C
ветер,
м/с
пор.,
м/с
влажн.,
%
обл.,
%
осадки,
мм/ч
давл.,
гПа
погр.,
м
13 апреля, вт
вт1300:00+8ю359151 0.0 1022135
03:00+8ю248790 0.0 1022182
06:00+8ююв2384100 0.0 1022121
09:00+9ююв3477100 0.0 1022300
12:00+10ю357293 0.0 1021434
15:00+13ю4561100 0.0 1020966
18:00+12ююв4766100 0.0 1020404
21:00+11ююв4776100 0.0 1021274
14 апреля, ср
ср1400:00+8ююв36908 0.0 1020139
03:00+6ююв34955 0.0 102070
06:00+6юв2295100 0.0 101936
09:00+10ююв2376100 0.0 1018368
12:00+14ююв4459100 0.0 10171202
15:00+15ю4446100 0.0 10161513
18:00+15ююв445017 0.0 10151408
21:00+10ю497190 0.0 1016231
15 апреля, чт
чт1500:00+9ююв4982100 0.0 1015294
03:00+8ююв4880100 0.0 1014344
06:00+8ююв3889100 0.7 1014411
09:00+10ююв6980100 0.7 1014572
12:00+10ююв6984100 0.7 1014620
15:00+12ю697420 1.1 1013966
18:00+11ююз69675 0.1 1013873
21:00+10ююз5979100 0.3 1014576
16 апреля, пт
пт1600:00+7юз48845 0.0 1014366
03:00+5ю498080 0.0 1015300
06:00+7ююз51072100 0.0 1015685
09:00+8ююз696973 0.0 1015845
12:00+11ююз7954100 0.1 10151818
15:00+11юз686087 0.6 10161265
18:00+12юз574946 0.1 10161661
21:00+8ююз33615 0.2 101728
17 апреля, сб
сб1700:00+6юз33715 0.0 101834
03:00+5юз33795 0.0 101947
06:00+4ю33835 0.0 101945
09:00+9ю466335 0.0 1020596
12:00+12ююз565493 0.0 10201294
15:00+12ююз4454100 0.1 10191337
18:00+12ю2360100 0.0 1020100
21:00+10ююв3464100 0.0 102081